Time,TemperatureF,DewpointF,PressureIn,WindDirection,WindDirectionDegrees,WindSpeedMPH,WindSpeedGustMPH,Humidity,HourlyPrecipIn,Conditions,Clouds,dailyrainin,SoftwareType,DateUTC
2013-05-15 00:02:00,70.8,61.3,30.19,NE,45,0.0,0.0,72,0.00,,,0.00,Wunderground v.1.13,2013-05-15 04:02:00,
2013-05-15 00:04:00,70.8,61.3,30.19,NE,48,0.0,0.0,72,0.00,,,0.00,Wunderground v.1.13,2013-05-15 04:04:00,
2013-05-15 00:06:00,70.7,61.2,30.19,NE,48,0.0,0.0,72,0.00,,,0.00,Wunderground v.1.13,2013-05-15 04:06:00,
2013-05-15 00:08:00,70.7,61.2,30.18,NE,48,0.0,0.0,72,0.00,,,0.00,Wunderground v.1.13,2013-05-15 04:08:00,
2013-05-15 00:14:00,70.6,61.1,30.19,NE,48,0.0,0.0,72,0.00,,,0.00,Wunderground v.1.13,2013-05-15 04:14:00,
2013-05-15 00:20:00,70.4,60.9,30.19,NE,48,0.0,0.0,72,0.00,,,0.00,Wunderground v.1.13,2013-05-15 04:20:00,
2013-05-15 00:24:00,70.2,60.7,30.19,NE,48,0.0,0.0,72,0.00,,,0.00,Wunderground v.1.13,2013-05-15 04:24:00,
2013-05-15 00:30:00,70.0,60.6,30.19,NE,48,0.0,0.0,72,0.00,,,0.00,Wunderground v.1.13,2013-05-15 04:30:00,
2013-05-15 00:36:00,69.8,60.4,30.19,NE,48,0.0,0.0,72,0.00,,,0.00,Wunderground v.1.13,2013-05-15 04:36:00,
2013-05-15 00:42:00,69.7,60.3,30.19,NE,48,0.0,0.0,72,0.00,,,0.00,Wunderground v.1.13,2013-05-15 04:42:00,
2013-05-15 00:48:00,69.7,60.3,30.19,NE,48,0.0,0.0,72,0.00,,,0.00,Wunderground v.1.13,2013-05-15 04:48:00,
2013-05-15 00:54:00,69.9,60.1,30.19,NE,48,0.0,0.0,71,0.00,,,0.00,Wunderground v.1.13,2013-05-15 04:54:00,
2013-05-15 01:00:00,70.1,60.3,30.19,East,89,0.0,0.0,71,0.00,,,0.00,Wunderground v.1.13,2013-05-15 05:00:00,
2013-05-15 01:06:00,70.3,60.1,30.19,SE,130,0.0,0.0,70,0.00,,,0.00,Wunderground v.1.13,2013-05-15 05:06:00,
2013-05-15 01:12:00,70.4,59.7,30.19,SE,130,0.0,0.0,69,0.00,,,0.00,Wunderground v.1.13,2013-05-15 05:12:00,
2013-05-15 01:18:00,70.5,59.8,30.19,ESE,123,0.0,0.0,69,0.00,,,0.00,Wunderground v.1.13,2013-05-15 05:18:00,
2013-05-15 01:24:00,70.5,59.8,30.18,ESE,115,0.0,0.0,69,0.00,,,0.00,Wunderground v.1.13,2013-05-15 05:24:00,
2013-05-15 01:30:00,70.5,59.8,30.19,ESE,114,0.0,0.0,69,0.00,,,0.00,Wunderground v.1.13,2013-05-15 05:30:00,
2013-05-15 01:36:00,70.4,59.7,30.18,East,91,0.0,0.0,69,0.00,,,0.00,Wunderground v.1.13,2013-05-15 05:36:00,
2013-05-15 01:42:00,70.4,60.1,30.18,ESE,119,0.0,0.0,70,0.00,,,0.00,Wunderground v.1.13,2013-05-15 05:42:00,
2013-05-15 01:48:00,70.3,60.1,30.19,ESE,119,0.0,0.0,70,0.00,,,0.00,Wunderground v.1.13,2013-05-15 05:48:00,
2013-05-15 01:54:00,70.2,60.0,30.19,SE,126,0.0,0.0,70,0.00,,,0.00,Wunderground v.1.13,2013-05-15 05:54:00,
2013-05-15 02:00:00,70.1,59.9,30.19,SE,129,0.0,0.0,70,0.00,,,0.00,Wunderground v.1.13,2013-05-15 06:00:00,
2013-05-15 02:06:00,70.1,59.5,30.18,ESE,117,0.0,0.0,69,0.00,,,0.00,Wunderground v.1.13,2013-05-15 06:06:00,
2013-05-15 02:12:00,70.2,59.6,30.18,ESE,118,0.0,0.0,69,0.00,,,0.00,Wunderground v.1.13,2013-05-15 06:12:00,
2013-05-15 02:18:00,70.2,59.6,30.18,ESE,118,0.0,0.0,69,0.00,,,0.00,Wunderground v.1.13,2013-05-15 06:18:00,
2013-05-15 02:24:00,70.1,59.5,30.18,ESE,121,0.0,0.0,69,0.00,,,0.00,Wunderground v.1.13,2013-05-15 06:24:00,
2013-05-15 02:30:00,70.0,59.8,30.18,ESE,121,0.0,0.0,70,0.00,,,0.00,Wunderground v.1.13,2013-05-15 06:30:00,
2013-05-15 02:36:00,69.9,59.7,30.18,ESE,120,0.0,0.0,70,0.00,,,0.00,Wunderground v.1.13,2013-05-15 06:36:00,
2013-05-15 02:42:00,69.8,59.6,30.17,ESE,119,0.0,0.0,70,0.00,,,0.00,Wunderground v.1.13,2013-05-15 06:42:00,
2013-05-15 02:48:00,69.6,59.8,30.18,ESE,119,0.0,0.0,71,0.00,,,0.00,Wunderground v.1.13,2013-05-15 06:48:00,
2013-05-15 02:54:00,69.5,60.1,30.17,ESE,119,0.0,0.0,72,0.00,,,0.00,Wunderground v.1.13,2013-05-15 06:54:00,
2013-05-15 03:00:00,69.3,59.9,30.17,ESE,119,0.0,0.0,72,0.00,,,0.00,Wunderground v.1.13,2013-05-15 07:00:00,
2013-05-15 03:06:00,69.2,60.2,30.17,ESE,119,0.0,0.0,73,0.00,,,0.00,Wunderground v.1.13,2013-05-15 07:06:00,
2013-05-15 03:12:00,69.0,60.0,30.16,ESE,119,0.0,0.0,73,0.00,,,0.00,Wunderground v.1.13,2013-05-15 07:12:00,
2013-05-15 03:18:00,68.9,60.3,30.17,ESE,119,0.0,0.0,74,0.00,,,0.00,Wunderground v.1.13,2013-05-15 07:18:00,
2013-05-15 03:24:00,68.8,60.2,30.16,ESE,119,0.0,0.0,74,0.00,,,0.00,Wunderground v.1.13,2013-05-15 07:24:00,
2013-05-15 03:30:00,68.7,60.1,30.17,ESE,119,0.0,0.0,74,0.00,,,0.00,Wunderground v.1.13,2013-05-15 07:30:00,
2013-05-15 03:36:00,68.6,60.0,30.17,ESE,119,0.0,0.0,74,0.00,,,0.00,Wunderground v.1.13,2013-05-15 07:36:00,
2013-05-15 03:42:00,68.5,59.9,30.17,ESE,119,0.0,0.0,74,0.00,,,0.00,Wunderground v.1.13,2013-05-15 07:42:00,
2013-05-15 03:48:00,68.4,60.2,30.16,ESE,119,0.0,0.0,75,0.00,,,0.00,Wunderground v.1.13,2013-05-15 07:48:00,
2013-05-15 03:54:00,68.3,60.1,30.16,ESE,119,0.0,0.0,75,0.00,,,0.00,Wunderground v.1.13,2013-05-15 07:54:00,
2013-05-15 04:00:00,68.1,60.2,30.16,ESE,119,0.0,0.0,76,0.00,,,0.00,Wunderground v.1.13,2013-05-15 08:00:00,
2013-05-15 04:06:00,68.0,60.2,30.16,ESE,119,0.0,0.0,76,0.00,,,0.00,Wunderground v.1.13,2013-05-15 08:06:00,
2013-05-15 04:12:00,67.9,60.1,30.16,ESE,119,0.0,0.0,76,0.00,,,0.00,Wunderground v.1.13,2013-05-15 08:12:00,
2013-05-15 04:18:00,67.9,60.1,30.17,ESE,119,0.0,0.0,76,0.00,,,0.00,Wunderground v.1.13,2013-05-15 08:18:00,
2013-05-15 04:24:00,67.9,60.1,30.16,ESE,119,0.0,0.0,76,0.00,,,0.00,Wunderground v.1.13,2013-05-15 08:24:00,
2013-05-15 04:30:00,67.7,60.2,30.16,ESE,119,0.0,0.0,77,0.00,,,0.00,Wunderground v.1.13,2013-05-15 08:30:00,
2013-05-15 04:36:00,67.6,60.1,30.16,ESE,119,0.0,0.0,77,0.00,,,0.00,Wunderground v.1.13,2013-05-15 08:36:00,
2013-05-15 04:42:00,67.5,60.0,30.16,ESE,119,0.0,0.0,77,0.00,,,0.00,Wunderground v.1.13,2013-05-15 08:42:00,
2013-05-15 04:48:00,67.5,60.0,30.16,ESE,119,0.0,0.0,77,0.00,,,0.00,Wunderground v.1.13,2013-05-15 08:48:00,
2013-05-15 04:54:00,67.4,59.9,30.16,ESE,119,0.0,0.0,77,0.00,,,0.00,Wunderground v.1.13,2013-05-15 08:54:00,
2013-05-15 05:00:00,67.4,60.3,30.16,ESE,119,0.0,0.0,78,0.00,,,0.00,Wunderground v.1.13,2013-05-15 09:00:00,
2013-05-15 05:06:00,67.5,60.4,30.16,ESE,119,0.0,0.0,78,0.00,,,0.00,Wunderground v.1.13,2013-05-15 09:06:00,
2013-05-15 05:12:00,67.5,60.4,30.16,ESE,119,0.0,0.0,78,0.00,,,0.00,Wunderground v.1.13,2013-05-15 09:12:00,
2013-05-15 05:18:00,67.5,60.4,30.16,ESE,119,0.0,0.0,78,0.00,,,0.00,Wunderground v.1.13,2013-05-15 09:18:00,
2013-05-15 05:24:00,67.4,60.3,30.16,ESE,119,0.0,0.0,78,0.00,,,0.00,Wunderground v.1.13,2013-05-15 09:24:00,
2013-05-15 05:30:00,67.4,60.3,30.16,ESE,119,0.0,0.0,78,0.00,,,0.00,Wunderground v.1.13,2013-05-15 09:30:00,
2013-05-15 05:36:00,67.3,60.2,30.16,ESE,119,0.0,0.0,78,0.00,,,0.00,Wunderground v.1.13,2013-05-15 09:36:00,
2013-05-15 05:42:00,67.2,60.1,30.17,ESE,119,0.0,0.0,78,0.00,,,0.00,Wunderground v.1.13,2013-05-15 09:42:00,
2013-05-15 05:48:00,67.1,60.4,30.17,ESE,119,0.0,0.0,79,0.00,,,0.00,Wunderground v.1.13,2013-05-15 09:48:00,
2013-05-15 05:54:00,67.0,60.3,30.17,ESE,119,0.0,0.0,79,0.00,,,0.00,Wunderground v.1.13,2013-05-15 09:54:00,
2013-05-15 06:00:00,66.9,60.2,30.17,ESE,119,0.0,0.0,79,0.00,,,0.00,Wunderground v.1.13,2013-05-15 10:00:00,
2013-05-15 06:06:00,66.8,60.1,30.17,ESE,119,0.0,0.0,79,0.00,,,0.00,Wunderground v.1.13,2013-05-15 10:06:00,
2013-05-15 06:12:00,66.7,60.0,30.17,ESE,119,0.0,0.0,79,0.00,,,0.00,Wunderground v.1.13,2013-05-15 10:12:00,
2013-05-15 06:18:00,66.6,59.9,30.17,ESE,119,0.0,0.0,79,0.00,,,0.00,Wunderground v.1.13,2013-05-15 10:18:00,
2013-05-15 06:24:00,66.6,59.9,30.17,ESE,119,0.0,0.0,79,0.00,,,0.00,Wunderground v.1.13,2013-05-15 10:24:00,
2013-05-15 06:30:00,66.6,59.9,30.18,ESE,119,0.0,0.0,79,0.00,,,0.00,Wunderground v.1.13,2013-05-15 10:30:00,
2013-05-15 06:36:00,66.5,59.8,30.18,ESE,119,0.0,0.0,79,0.00,,,0.00,Wunderground v.1.13,2013-05-15 10:36:00,
2013-05-15 06:42:00,66.6,59.9,30.18,ESE,119,0.0,0.0,79,0.00,,,0.00,Wunderground v.1.13,2013-05-15 10:42:00,
2013-05-15 06:48:00,66.7,60.0,30.18,ESE,119,0.0,0.0,79,0.00,,,0.00,Wunderground v.1.13,2013-05-15 10:48:00,
2013-05-15 06:54:00,66.7,60.0,30.18,ESE,119,0.0,0.0,79,0.00,,,0.00,Wunderground v.1.13,2013-05-15 10:54:00,
2013-05-15 07:00:00,66.7,60.0,30.18,ESE,119,0.0,0.0,79,0.00,,,0.00,Wunderground v.1.13,2013-05-15 11:00:00,
2013-05-15 07:06:00,66.8,60.1,30.18,ESE,119,0.0,0.0,79,0.00,,,0.00,Wunderground v.1.13,2013-05-15 11:06:00,
2013-05-15 07:14:00,66.8,60.1,30.18,ESE,119,0.0,0.0,79,0.00,,,0.00,Wunderground v.1.13,2013-05-15 11:14:00,
2013-05-15 07:20:00,66.9,60.2,30.18,ESE,119,0.0,0.0,79,0.00,,,0.00,Wunderground v.1.13,2013-05-15 11:20:00,
2013-05-15 07:26:00,67.2,60.5,30.18,ESE,119,0.0,0.0,79,0.00,,,0.00,Wunderground v.1.13,2013-05-15 11:26:00,
2013-05-15 07:34:00,67.9,60.8,30.18,ESE,119,0.0,0.0,78,0.00,,,0.00,Wunderground v.1.13,2013-05-15 11:34:00,
2013-05-15 07:40:00,68.3,61.2,30.18,ESE,119,0.0,0.0,78,0.00,,,0.00,Wunderground v.1.13,2013-05-15 11:40:00,
2013-05-15 07:46:00,68.8,61.3,30.18,ESE,119,0.0,0.0,77,0.00,,,0.00,Wunderground v.1.13,2013-05-15 11:46:00,
2013-05-15 07:54:00,69.5,61.6,30.18,ESE,119,0.0,0.0,76,0.00,,,0.00,Wunderground v.1.13,2013-05-15 11:54:00,
2013-05-15 08:00:00,70.1,61.8,30.18,ESE,119,0.0,0.0,75,0.00,,,0.00,Wunderground v.1.13,2013-05-15 12:00:00,
2013-05-15 08:06:00,70.6,61.9,30.19,ESE,119,0.0,0.0,74,0.00,,,0.00,Wunderground v.1.13,2013-05-15 12:06:00,
2013-05-15 08:12:00,71.1,62.0,30.19,ESE,119,0.0,0.0,73,0.00,,,0.00,Wunderground v.1.13,2013-05-15 12:12:00,
2013-05-15 08:18:00,71.6,62.1,30.19,SE,126,0.0,0.0,72,0.00,,,0.00,Wunderground v.1.13,2013-05-15 12:18:00,
2013-05-15 08:26:00,72.1,61.8,30.20,ESE,118,0.0,0.0,70,0.00,,,0.00,Wunderground v.1.13,2013-05-15 12:26:00,
2013-05-15 08:32:00,72.4,61.7,30.20,ESE,107,0.0,0.0,69,0.00,,,0.00,Wunderground v.1.13,2013-05-15 12:32:00,
2013-05-15 08:38:00,72.8,62.0,30.20,East,99,0.0,0.0,69,0.00,,,0.00,Wunderground v.1.13,2013-05-15 12:38:00,
2013-05-15 08:44:00,73.1,62.3,30.20,East,99,0.0,0.0,69,0.00,,,0.00,Wunderground v.1.13,2013-05-15 12:44:00,
2013-05-15 08:50:00,73.4,62.2,30.20,East,99,0.0,0.0,68,0.00,,,0.00,Wunderground v.1.13,2013-05-15 12:50:00,
2013-05-15 09:02:00,73.7,62.5,30.21,ENE,57,0.0,0.0,68,0.00,,,0.00,Wunderground v.1.13,2013-05-15 13:02:00,
2013-05-15 09:08:00,74.0,61.9,30.21,ENE,63,0.0,0.0,66,0.00,,,0.00,Wunderground v.1.13,2013-05-15 13:08:00,
2013-05-15 09:14:00,74.1,62.0,30.21,ENE,66,0.0,0.0,66,0.00,,,0.00,Wunderground v.1.13,2013-05-15 13:14:00,
2013-05-15 09:22:00,74.1,62.4,30.21,ENE,70,0.0,0.0,67,0.00,,,0.00,Wunderground v.1.13,2013-05-15 13:22:00,
2013-05-15 09:30:00,74.2,62.1,30.21,East,94,0.0,0.0,66,0.00,,,0.00,Wunderground v.1.13,2013-05-15 13:30:00,
2013-05-15 09:35:00,74.6,62.5,30.22,East,89,1.0,1.0,66,0.00,,,0.00,Wunderground v.1.13,2013-05-15 13:35:00,
2013-05-15 09:42:00,74.8,62.7,30.21,ENE,68,1.0,1.0,66,0.00,,,0.00,Wunderground v.1.13,2013-05-15 13:42:00,
2013-05-15 09:48:00,74.9,62.3,30.21,East,98,1.0,2.0,65,0.00,,,0.00,Wunderground v.1.13,2013-05-15 13:48:00,
2013-05-15 09:54:00,75.4,61.9,30.21,East,92,1.0,4.0,63,0.00,,,0.00,Wunderground v.1.13,2013-05-15 13:54:00,
2013-05-15 10:00:00,75.8,61.8,30.21,East,95,1.0,1.0,62,0.00,,,0.00,Wunderground v.1.13,2013-05-15 14:00:00,
2013-05-15 10:06:00,76.3,61.9,30.21,East,86,0.0,0.0,61,0.00,,,0.00,Wunderground v.1.13,2013-05-15 14:06:00,
2013-05-15 10:12:00,76.5,61.6,30.21,ESE,118,1.0,1.0,60,0.00,,,0.00,Wunderground v.1.13,2013-05-15 14:12:00,
2013-05-15 10:20:00,76.7,60.8,30.21,SSE,159,1.0,9.0,58,0.00,,,0.00,Wunderground v.1.13,2013-05-15 14:20:00,
2013-05-15 10:26:00,77.1,62.1,30.21,SE,125,1.0,9.0,60,0.00,,,0.00,Wunderground v.1.13,2013-05-15 14:26:00,
2013-05-15 10:32:00,77.2,60.8,30.21,SE,139,0.0,9.0,57,0.00,,,0.00,Wunderground v.1.13,2013-05-15 14:32:00,
2013-05-15 10:38:00,77.5,61.6,30.21,ESE,107,0.0,9.0,58,0.00,,,0.00,Wunderground v.1.13,2013-05-15 14:38:00,
2013-05-15 10:44:00,78.0,62.0,30.21,ESE,106,0.0,9.0,58,0.00,,,0.00,Wunderground v.1.13,2013-05-15 14:44:00,
2013-05-15 10:50:00,78.3,60.8,30.21,ESE,115,0.0,9.0,55,0.00,,,0.00,Wunderground v.1.13,2013-05-15 14:50:00,
2013-05-15 10:58:00,78.0,61.0,30.21,East,80,0.0,9.0,56,0.00,,,0.00,Wunderground v.1.13,2013-05-15 14:58:00,
2013-05-15 11:03:00,78.0,60.5,30.21,ESE,109,0.0,9.0,55,0.00,,,0.00,Wunderground v.1.13,2013-05-15 15:03:00,
2013-05-15 11:10:00,77.8,60.3,30.20,East,101,0.0,0.0,55,0.00,,,0.00,Wunderground v.1.13,2013-05-15 15:10:00,
2013-05-15 11:18:00,78.4,59.9,30.20,East,84,0.0,4.0,53,0.00,,,0.00,Wunderground v.1.13,2013-05-15 15:18:00,
2013-05-15 11:24:00,78.5,58.3,30.21,ESE,110,1.0,1.0,50,0.00,,,0.00,Wunderground v.1.13,2013-05-15 15:24:00,
2013-05-15 11:30:00,78.6,57.3,30.20,East,83,1.0,1.0,48,0.00,,,0.00,Wunderground v.1.13,2013-05-15 15:30:00,
2013-05-15 11:36:00,78.7,56.2,30.20,ESE,114,1.0,1.0,46,0.00,,,0.00,Wunderground v.1.13,2013-05-15 15:36:00,
2013-05-15 11:42:00,79.1,55.3,30.21,ESE,119,1.0,1.0,44,0.00,,,0.00,Wunderground v.1.13,2013-05-15 15:42:00,
2013-05-15 11:50:00,79.1,57.1,30.20,East,92,1.0,3.0,47,0.00,,,0.00,Wunderground v.1.13,2013-05-15 15:50:00,
2013-05-15 11:58:00,79.4,57.4,30.20,East,80,1.0,3.0,47,0.00,,,0.00,Wunderground v.1.13,2013-05-15 15:58:00,
2013-05-15 12:04:00,79.8,57.2,30.20,SE,144,1.0,3.0,46,0.00,,,0.00,Wunderground v.1.13,2013-05-15 16:04:00,
2013-05-15 12:10:00,79.7,58.8,30.20,SE,138,1.0,6.0,49,0.00,,,0.00,Wunderground v.1.13,2013-05-15 16:10:00,
2013-05-15 12:16:00,80.0,58.5,30.20,ENE,65,2.0,6.0,48,0.00,,,0.00,Wunderground v.1.13,2013-05-15 16:16:00,
2013-05-15 12:22:00,79.8,57.8,30.20,ESE,102,2.0,9.0,47,0.00,,,0.00,Wunderground v.1.13,2013-05-15 16:22:00,
2013-05-15 12:28:00,80.1,58.0,30.20,ESE,115,1.0,9.0,47,0.00,,,0.00,Wunderground v.1.13,2013-05-15 16:28:00,
2013-05-15 12:34:00,80.7,58.0,30.19,East,101,1.0,9.0,46,0.00,,,0.00,Wunderground v.1.13,2013-05-15 16:34:00,
2013-05-15 12:42:00,81.0,57.7,30.19,SSE,154,1.0,9.0,45,0.00,,,0.00,Wunderground v.1.13,2013-05-15 16:42:00,
2013-05-15 12:48:00,81.0,58.3,30.19,ENE,65,2.0,2.0,46,0.00,,,0.00,Wunderground v.1.13,2013-05-15 16:48:00,
2013-05-15 12:54:00,81.0,57.7,30.19,ESE,105,2.0,2.0,45,0.00,,,0.00,Wunderground v.1.13,2013-05-15 16:54:00,
2013-05-15 13:00:00,81.4,57.4,30.18,SSE,154,1.0,1.0,44,0.00,,,0.00,Wunderground v.1.13,2013-05-15 17:00:00,
2013-05-15 13:06:00,81.2,57.2,30.18,ENE,75,1.0,5.0,44,0.00,,,0.00,Wunderground v.1.13,2013-05-15 17:06:00,
2013-05-15 13:12:00,81.0,57.0,30.18,ESE,105,1.0,1.0,44,0.00,,,0.00,Wunderground v.1.13,2013-05-15 17:12:00,
2013-05-15 13:18:00,81.1,57.7,30.18,ESE,108,0.0,7.0,45,0.00,,,0.00,Wunderground v.1.13,2013-05-15 17:18:00,
2013-05-15 13:24:00,81.2,57.8,30.18,NE,55,1.0,1.0,45,0.00,,,0.00,Wunderground v.1.13,2013-05-15 17:24:00,
2013-05-15 13:30:00,81.2,57.2,30.17,ENE,64,1.0,7.0,44,0.00,,,0.00,Wunderground v.1.13,2013-05-15 17:30:00,
2013-05-15 13:36:00,81.5,57.5,30.17,East,98,1.0,1.0,44,0.00,,,0.00,Wunderground v.1.13,2013-05-15 17:36:00,
2013-05-15 13:46:00,82.0,57.3,30.16,ESE,104,1.0,7.0,43,0.00,,,0.00,Wunderground v.1.13,2013-05-15 17:46:00,
2013-05-15 13:52:00,82.5,57.1,30.16,SE,128,1.0,7.0,42,0.00,,,0.00,Wunderground v.1.13,2013-05-15 17:52:00,
2013-05-15 13:58:00,82.8,56.7,30.16,ENE,71,1.0,7.0,41,0.00,,,0.00,Wunderground v.1.13,2013-05-15 17:58:00,
2013-05-15 14:04:00,82.4,58.3,30.16,ENE,65,1.0,7.0,44,0.00,,,0.00,Wunderground v.1.13,2013-05-15 18:04:00,
2013-05-15 14:10:00,82.6,57.2,30.16,ESE,111,0.0,1.0,42,0.00,,,0.00,Wunderground v.1.13,2013-05-15 18:10:00,
2013-05-15 14:16:00,83.0,57.5,30.16,ENE,67,0.0,10.0,42,0.00,,,0.00,Wunderground v.1.13,2013-05-15 18:16:00,
2013-05-15 14:22:00,83.3,57.8,30.16,SE,124,0.0,10.0,42,0.00,,,0.00,Wunderground v.1.13,2013-05-15 18:22:00,
2013-05-15 14:28:00,83.6,57.4,30.16,ENE,61,0.0,10.0,41,0.00,,,0.00,Wunderground v.1.13,2013-05-15 18:28:00,
2013-05-15 14:34:00,83.4,57.2,30.15,NNE,22,0.0,10.0,41,0.00,,,0.00,Wunderground v.1.13,2013-05-15 18:34:00,
2013-05-15 14:40:00,83.4,57.2,30.15,NE,37,0.0,10.0,41,0.00,,,0.00,Wunderground v.1.13,2013-05-15 18:40:00,
2013-05-15 14:46:00,83.2,57.7,30.15,NE,45,0.0,10.0,42,0.00,,,0.00,Wunderground v.1.13,2013-05-15 18:46:00,
2013-05-15 14:52:00,83.3,57.1,30.14,ENE,67,0.0,10.0,41,0.00,,,0.00,Wunderground v.1.13,2013-05-15 18:52:00,
2013-05-15 14:58:00,83.6,57.4,30.14,NNE,28,0.0,10.0,41,0.00,,,0.00,Wunderground v.1.13,2013-05-15 18:58:00,
2013-05-15 15:04:00,83.5,57.3,30.14,ENE,73,1.0,10.0,41,0.00,,,0.00,Wunderground v.1.13,2013-05-15 19:04:00,
2013-05-15 15:10:00,83.7,56.8,30.14,ENE,64,1.0,1.0,40,0.00,,,0.00,Wunderground v.1.13,2013-05-15 19:10:00,
2013-05-15 15:16:00,83.6,56.7,30.14,NE,38,0.0,7.0,40,0.00,,,0.00,Wunderground v.1.13,2013-05-15 19:16:00,
2013-05-15 15:22:00,83.9,57.7,30.13,ENE,65,0.0,7.0,41,0.00,,,0.00,Wunderground v.1.13,2013-05-15 19:22:00,
2013-05-15 15:28:00,84.1,57.2,30.13,NNE,32,0.0,7.0,40,0.00,,,0.00,Wunderground v.1.13,2013-05-15 19:28:00,
2013-05-15 15:34:00,83.9,57.0,30.13,ESE,107,1.0,7.0,40,0.00,,,0.00,Wunderground v.1.13,2013-05-15 19:34:00,
2013-05-15 15:40:00,84.0,57.1,30.12,East,99,1.0,7.0,40,0.00,,,0.00,Wunderground v.1.13,2013-05-15 19:40:00,
2013-05-15 15:50:00,84.0,57.1,30.12,SSE,161,0.0,7.0,40,0.00,,,0.00,Wunderground v.1.13,2013-05-15 19:50:00,
2013-05-15 15:56:00,84.6,56.9,30.11,East,84,0.0,7.0,39,0.00,,,0.00,Wunderground v.1.13,2013-05-15 19:56:00,
2013-05-15 16:02:00,84.6,56.9,30.11,East,89,0.0,7.0,39,0.00,,,0.00,Wunderground v.1.13,2013-05-15 20:02:00,
2013-05-15 16:12:00,85.1,58.1,30.11,ENE,60,0.0,0.0,40,0.00,,,0.00,Wunderground v.1.13,2013-05-15 20:12:00,
2013-05-15 16:22:00,84.8,56.4,30.10,East,82,1.0,7.0,38,0.00,,,0.00,Wunderground v.1.13,2013-05-15 20:22:00,
2013-05-15 16:28:00,84.5,57.5,30.10,East,82,0.0,7.0,40,0.00,,,0.00,Wunderground v.1.13,2013-05-15 20:28:00,
2013-05-15 16:34:00,84.8,57.8,30.10,South,186,0.0,7.0,40,0.00,,,0.00,Wunderground v.1.13,2013-05-15 20:34:00,
2013-05-15 16:40:00,84.6,56.2,30.10,West,266,0.0,7.0,38,0.00,,,0.00,Wunderground v.1.13,2013-05-15 20:40:00,
2013-05-15 16:46:00,84.1,64.0,30.09,NW,325,1.0,7.0,51,0.00,,,0.00,Wunderground v.1.13,2013-05-15 20:46:00,
2013-05-15 16:52:00,83.0,64.1,30.09,NW,308,2.0,7.0,53,0.00,,,0.00,Wunderground v.1.13,2013-05-15 20:52:00,
2013-05-15 16:58:00,82.4,64.1,30.09,WNW,296,1.0,7.0,54,0.00,,,0.00,Wunderground v.1.13,2013-05-15 20:58:00,
2013-05-15 17:04:00,81.9,63.6,30.09,NW,307,1.0,7.0,54,0.00,,,0.00,Wunderground v.1.13,2013-05-15 21:04:00,
2013-05-15 17:10:00,82.0,63.7,30.09,NW,322,1.0,1.0,54,0.00,,,0.00,Wunderground v.1.13,2013-05-15 21:10:00,
2013-05-15 17:18:00,82.0,64.2,30.09,NW,311,1.0,11.0,55,0.00,,,0.00,Wunderground v.1.13,2013-05-15 21:18:00,
2013-05-15 17:26:00,81.6,63.3,30.09,WNW,300,2.0,11.0,54,0.00,,,0.00,Wunderground v.1.13,2013-05-15 21:26:00,
2013-05-15 17:32:00,80.7,63.0,30.09,WNW,287,2.0,11.0,55,0.00,,,0.00,Wunderground v.1.13,2013-05-15 21:32:00,
2013-05-15 17:38:00,80.7,62.5,30.09,WNW,301,3.0,11.0,54,0.00,,,0.00,Wunderground v.1.13,2013-05-15 21:38:00,
2013-05-15 17:46:00,80.5,62.3,30.09,NW,323,2.0,11.0,54,0.00,,,0.00,Wunderground v.1.13,2013-05-15 21:46:00,
2013-05-15 17:52:00,80.3,62.1,30.09,NNW,334,3.0,11.0,54,0.00,,,0.00,Wunderground v.1.13,2013-05-15 21:52:00,
2013-05-15 18:00:00,79.9,62.3,30.09,NNW,333,3.0,11.0,55,0.00,,,0.00,Wunderground v.1.13,2013-05-15 22:00:00,
2013-05-15 18:08:00,79.6,62.5,30.08,NW,311,3.0,3.0,56,0.00,,,0.00,Wunderground v.1.13,2013-05-15 22:08:00,
2013-05-15 18:14:00,79.7,62.6,30.09,NNW,337,0.0,1.0,56,0.00,,,0.00,Wunderground v.1.13,2013-05-15 22:14:00,
2013-05-15 18:22:00,79.8,63.2,30.08,NNW,329,2.0,15.0,57,0.00,,,0.00,Wunderground v.1.13,2013-05-15 22:22:00,
2013-05-15 18:27:00,79.5,61.9,30.08,NNW,347,3.0,15.0,55,0.00,,,0.00,Wunderground v.1.13,2013-05-15 22:27:00,
2013-05-15 18:34:00,79.3,61.7,30.08,WNW,298,2.0,15.0,55,0.00,,,0.00,Wunderground v.1.13,2013-05-15 22:34:00,
2013-05-15 18:40:00,79.0,62.0,30.08,NW,323,3.0,15.0,56,0.00,,,0.00,Wunderground v.1.13,2013-05-15 22:40:00,
2013-05-15 18:46:00,78.9,61.9,30.08,NW,319,2.0,15.0,56,0.00,,,0.00,Wunderground v.1.13,2013-05-15 22:46:00,
2013-05-15 18:54:00,78.5,62.5,30.08,NNW,329,1.0,1.0,58,0.00,,,0.00,Wunderground v.1.13,2013-05-15 22:54:00,
2013-05-15 19:00:00,78.1,62.1,30.08,North,350,0.0,15.0,58,0.00,,,0.00,Wunderground v.1.13,2013-05-15 23:00:00,
2013-05-15 19:06:00,77.8,62.3,30.08,NNW,331,0.0,0.0,59,0.00,,,0.00,Wunderground v.1.13,2013-05-15 23:06:00,
2013-05-15 19:12:00,77.6,62.1,30.08,NNW,348,0.0,0.0,59,0.00,,,0.00,Wunderground v.1.13,2013-05-15 23:12:00,
2013-05-15 19:18:00,77.6,62.6,30.07,NNW,329,0.0,11.0,60,0.00,,,0.00,Wunderground v.1.13,2013-05-15 23:18:00,
2013-05-15 19:24:00,77.6,62.6,30.07,North,350,0.0,11.0,60,0.00,,,0.00,Wunderground v.1.13,2013-05-15 23:24:00,
2013-05-15 19:30:00,77.4,62.4,30.07,WNW,300,0.0,11.0,60,0.00,,,0.00,Wunderground v.1.13,2013-05-15 23:30:00,
2013-05-15 19:36:00,77.1,62.6,30.07,NW,304,0.0,11.0,61,0.00,,,0.00,Wunderground v.1.13,2013-05-15 23:36:00,
2013-05-15 19:42:00,77.0,62.5,30.08,NNW,343,0.0,11.0,61,0.00,,,0.00,Wunderground v.1.13,2013-05-15 23:42:00,
2013-05-15 19:48:00,76.8,62.3,30.08,NNW,333,0.0,11.0,61,0.00,,,0.00,Wunderground v.1.13,2013-05-15 23:48:00,
2013-05-15 19:54:00,76.7,62.2,30.07,NNW,333,0.0,11.0,61,0.00,,,0.00,Wunderground v.1.13,2013-05-15 23:54:00,
2013-05-15 20:00:00,76.5,62.5,30.07,NNW,333,0.0,11.0,62,0.00,,,0.00,Wunderground v.1.13,2013-05-16 00:00:00,
2013-05-15 20:06:00,76.4,62.9,30.07,NNW,333,0.0,0.0,63,0.00,,,0.00,Wunderground v.1.13,2013-05-16 00:06:00,
2013-05-15 20:16:00,76.1,62.6,30.07,NNW,333,0.0,0.0,63,0.00,,,0.00,Wunderground v.1.13,2013-05-16 00:16:00,
2013-05-15 20:22:00,76.0,62.5,30.08,NNW,333,0.0,0.0,63,0.00,,,0.00,Wunderground v.1.13,2013-05-16 00:22:00,
2013-05-15 20:28:00,75.8,62.8,30.08,NNW,333,0.0,0.0,64,0.00,,,0.00,Wunderground v.1.13,2013-05-16 00:28:00,
2013-05-15 20:33:00,75.7,62.7,30.08,NNW,333,0.0,0.0,64,0.00,,,0.00,Wunderground v.1.13,2013-05-16 00:33:00,
2013-05-15 20:40:00,75.5,62.5,30.08,NNW,333,0.0,0.0,64,0.00,,,0.00,Wunderground v.1.13,2013-05-16 00:40:00,
2013-05-15 20:48:00,75.2,62.6,30.08,NNW,333,0.0,0.0,65,0.00,,,0.00,Wunderground v.1.13,2013-05-16 00:48:00,
2013-05-15 20:54:00,75.1,63.0,30.09,NNW,333,0.0,0.0,66,0.00,,,0.00,Wunderground v.1.13,2013-05-16 00:54:00,
2013-05-15 21:00:00,74.9,62.3,30.08,NNW,333,0.0,0.0,65,0.00,,,0.00,Wunderground v.1.13,2013-05-16 01:00:00,
2013-05-15 21:05:00,74.8,62.2,30.09,NNW,333,0.0,0.0,65,0.00,,,0.00,Wunderground v.1.13,2013-05-16 01:05:00,
2013-05-15 21:12:00,74.8,62.2,30.09,NNW,337,0.0,0.0,65,0.00,,,0.00,Wunderground v.1.13,2013-05-16 01:12:00,
2013-05-15 21:20:00,74.7,62.1,30.09,North,9,0.0,0.0,65,0.00,,,0.00,Wunderground v.1.13,2013-05-16 01:20:00,
2013-05-15 21:26:00,74.5,62.0,30.09,NNE,14,0.0,0.0,65,0.00,,,0.00,Wunderground v.1.13,2013-05-16 01:26:00,
2013-05-15 21:32:00,74.4,62.3,30.09,North,11,0.0,0.0,66,0.00,,,0.00,Wunderground v.1.13,2013-05-16 01:32:00,
2013-05-15 21:38:00,74.3,62.2,30.09,NNE,12,0.0,0.0,66,0.00,,,0.00,Wunderground v.1.13,2013-05-16 01:38:00,
2013-05-15 21:44:00,74.2,62.5,30.09,NNE,12,0.0,0.0,67,0.00,,,0.00,Wunderground v.1.13,2013-05-16 01:44:00,
2013-05-15 21:50:00,74.1,62.9,30.09,NNE,12,0.0,0.0,68,0.00,,,0.00,Wunderground v.1.13,2013-05-16 01:50:00,
2013-05-15 21:56:00,73.9,62.7,30.09,NNE,15,0.0,0.0,68,0.00,,,0.00,Wunderground v.1.13,2013-05-16 01:56:00,
2013-05-15 22:02:00,73.8,63.0,30.10,NNE,16,0.0,0.0,69,0.00,,,0.00,Wunderground v.1.13,2013-05-16 02:02:00,
2013-05-15 22:08:00,73.9,63.1,30.10,NNE,22,0.0,0.0,69,0.00,,,0.00,Wunderground v.1.13,2013-05-16 02:08:00,
2013-05-15 22:14:00,73.8,63.0,30.10,NNE,32,0.0,0.0,69,0.00,,,0.00,Wunderground v.1.13,2013-05-16 02:14:00,
2013-05-15 22:20:00,73.9,63.1,30.11,NE,36,0.0,0.0,69,0.00,,,0.00,Wunderground v.1.13,2013-05-16 02:20:00,
2013-05-15 22:26:00,73.8,63.0,30.11,NE,36,0.0,0.0,69,0.00,,,0.00,Wunderground v.1.13,2013-05-16 02:26:00,
2013-05-15 22:32:00,73.8,63.4,30.11,NNE,26,0.0,0.0,70,0.00,,,0.00,Wunderground v.1.13,2013-05-16 02:32:00,
2013-05-15 22:38:00,73.7,63.3,30.11,NNE,26,0.0,0.0,70,0.00,,,0.00,Wunderground v.1.13,2013-05-16 02:38:00,
2013-05-15 22:44:00,73.7,63.7,30.11,NNE,26,0.0,0.0,71,0.00,,,0.00,Wunderground v.1.13,2013-05-16 02:44:00,
2013-05-15 22:50:00,73.7,63.7,30.11,NNE,26,0.0,0.0,71,0.00,,,0.00,Wunderground v.1.13,2013-05-16 02:50:00,
2013-05-15 22:56:00,73.7,63.7,30.11,NE,55,0.0,0.0,71,0.00,,,0.00,Wunderground v.1.13,2013-05-16 02:56:00,
2013-05-15 23:02:00,73.7,64.1,30.11,NE,49,0.0,0.0,72,0.00,,,0.00,Wunderground v.1.13,2013-05-16 03:02:00,
2013-05-15 23:08:00,73.6,64.0,30.11,NE,47,0.0,0.0,72,0.00,,,0.00,Wunderground v.1.13,2013-05-16 03:08:00,
2013-05-15 23:14:00,73.7,64.5,30.11,NE,49,0.0,0.0,73,0.00,,,0.00,Wunderground v.1.13,2013-05-16 03:14:00,
2013-05-15 23:20:00,73.8,64.6,30.11,ENE,65,0.0,0.0,73,0.00,,,0.00,Wunderground v.1.13,2013-05-16 03:20:00,
2013-05-15 23:26:00,73.9,64.7,30.11,ENE,66,0.0,0.0,73,0.00,,,0.00,Wunderground v.1.13,2013-05-16 03:26:00,
2013-05-15 23:32:00,74.0,64.4,30.11,ESE,109,0.0,0.0,72,0.00,,,0.00,Wunderground v.1.13,2013-05-16 03:32:00,
2013-05-15 23:38:00,74.1,64.5,30.10,East,87,0.0,0.0,72,0.00,,,0.00,Wunderground v.1.13,2013-05-16 03:38:00,
2013-05-15 23:44:00,74.1,63.7,30.10,East,92,0.0,0.0,70,0.00,,,0.00,Wunderground v.1.13,2013-05-16 03:44:00,
2013-05-15 23:50:00,74.4,63.1,30.10,East,92,0.0,0.0,68,0.00,,,0.00,Wunderground v.1.13,2013-05-16 03:50:00,
2013-05-15 23:56:00,74.6,62.5,30.10,ESE,119,0.0,0.0,66,0.00,,,0.00,Wunderground v.1.13,2013-05-16 03:56:00,